Weather History for Dunkirk, NY

Change the Weather History Date:

Saturday, March 8, 2014

  Actual Average Record
Temperature  
Mean Temperature 32 °F -  
Max Temperature 39 °F 41 °F 75 °F (1983)
Min Temperature 24 °F 22 °F -5 °F (1984)
Degree Days  
Heating Degree Days 33    
Moisture  
Dew Point 27 °F    
Average Humidity 82    
Maximum Humidity 92    
Minimum Humidity 60    
Precipitation  
Precipitation 0.01 in - - ()
Sea Level Pressure  
Sea Level Pressure 29.99 in    
Wind  
Wind Speed 8 mph (West)    
Max Wind Speed 13 mph    
Max Gust Speed 17 mph    
Visibility 5 miles    
Events Snow    
Averages and records for this station are not official NWS values.
T = Trace of Precipitation, MM = Missing Value Source: NWS Daily Summary

Daily Weather History Graph

Daily Weather History Graph

Search for Another Location

Airport:

Trip Planner

Search our weather history database for the weather conditions in past years. The results will help you decide how hot, cold, wet, or windy it might be!

Date:

Astronomy

Mar. 08, 2014 Rise Set
Actual Time 6:41 AM EST 6:15 PM EST
Civil Twilight 6:12 AM EST 6:43 PM EST
Nautical Twilight 5:40 AM EST 7:16 PM EST
Astronomical Twilight 5:07 AM EST 7:48 PM EST
Moon 11:13 AM EST (3/8) 1:19 AM EST (3/8)
Length of Visible Light 12h 30m
Length of Day
11h 34m
First Quarter, 51% of the Moon is Illuminated
Mar 8
First Quarter
Mar 16
Full
Mar 23
Last Quarter
Mar 30
New
Apr 7
First Quarter

Hourly Weather History & Observations

Time (EST) Temp. Windchill Dew Point Humidity Pressure Visibility Wind Dir Wind Speed Gust Speed Precip Events Conditions
12:53 AM 35.1 °F 29.3 °F 24.1 °F 64% 29.91 in 10.0 mi SW 6.9 mph - N/A   Clear
1:53 AM 36.0 °F 30.3 °F 26.1 °F 67% 29.89 in 10.0 mi WSW 6.9 mph - N/A   Partly Cloudy
2:53 AM 35.1 °F 28.6 °F 25.0 °F 67% 29.88 in 10.0 mi SW 8.1 mph - N/A   Clear
3:53 AM 39.0 °F 32.8 °F 27.0 °F 62% 29.88 in 10.0 mi WSW 9.2 mph - N/A   Overcast
4:53 AM 39.0 °F 31.8 °F 26.1 °F 60% 29.90 in 10.0 mi WSW 11.5 mph - N/A   Overcast
5:53 AM 37.9 °F 30.9 °F 26.1 °F 62% 29.91 in 10.0 mi WSW 10.4 mph - N/A   Overcast
6:53 AM 35.1 °F 26.4 °F 26.1 °F 70% 29.95 in 9.0 mi WSW 12.7 mph - N/A   Overcast
7:17 AM 34.0 °F 26.0 °F 27.0 °F 75% 29.94 in 2.0 mi WSW 10.4 mph - 0.00 in Snow Light Snow
7:27 AM 33.1 °F 25.5 °F 28.0 °F 82% 29.95 in 1.5 mi WSW 9.2 mph - 0.00 in Snow Light Snow
7:34 AM 32.0 °F 24.2 °F 28.0 °F 85% 29.95 in 1.2 mi WSW 9.2 mph - 0.00 in Snow Light Snow
7:40 AM 32.0 °F 24.8 °F 28.0 °F 85% 29.95 in 1.0 mi WSW 8.1 mph - 0.00 in Snow Light Snow
7:47 AM 32.0 °F 25.6 °F 28.4 °F 87% 29.95 in 0.8 mi WSW 6.9 mph - 0.00 in Snow Light Snow
7:53 AM 32.0 °F 25.6 °F 28.9 °F 88% 29.97 in 0.8 mi WSW 6.9 mph - 0.00 in Snow Light Snow
8:22 AM 32.0 °F 25.6 °F 28.9 °F 88% 29.95 in 1.2 mi SW 6.9 mph - 0.01 in Snow Light Snow
8:53 AM 32.0 °F 25.6 °F 28.9 °F 88% 29.98 in 2.5 mi SW 6.9 mph - 0.01 in   Overcast
9:37 AM 32.0 °F 25.6 °F 28.9 °F 88% 29.95 in 3.0 mi SW 6.9 mph - N/A   Overcast
9:53 AM 33.1 °F 26.1 °F 30.0 °F 89% 29.98 in 3.0 mi West 8.1 mph - N/A   Overcast
10:00 AM 33.1 °F 26.9 °F 30.0 °F 89% 29.96 in 2.5 mi West 6.9 mph - N/A   Overcast
10:10 AM 32.0 °F 22.5 °F 30.0 °F 92% 29.96 in 1.8 mi WSW 12.7 mph - N/A   Overcast
10:27 AM 32.0 °F 23.6 °F 30.0 °F 92% 29.97 in 1.0 mi West 10.4 mph - N/A   Overcast
10:34 AM 32.0 °F 24.2 °F 30.0 °F 92% 29.97 in 1.2 mi WSW 9.2 mph - N/A   Overcast
10:53 AM 32.0 °F 24.8 °F 30.0 °F 92% 30.00 in 1.8 mi WSW 8.1 mph - N/A   Overcast
10:57 AM 32.0 °F 24.8 °F 30.0 °F 92% 29.97 in 2.0 mi West 8.1 mph - N/A   Overcast
11:24 AM 33.1 °F 25.5 °F 30.0 °F 89% 29.98 in 2.5 mi West 9.2 mph - N/A   Overcast
11:53 AM 33.1 °F 26.1 °F 28.9 °F 85% 30.00 in 3.0 mi WSW 8.1 mph - N/A   Overcast
12:01 PM 34.0 °F 26.6 °F 28.9 °F 82% 29.98 in 3.0 mi West 9.2 mph - N/A   Haze
12:08 PM 34.0 °F 27.2 °F 28.9 °F 82% 29.98 in 3.0 mi West 8.1 mph - N/A   Haze
12:44 PM 33.1 °F 26.9 °F 28.0 °F 82% 29.99 in 3.0 mi West 6.9 mph - N/A   Haze
12:53 PM 33.1 °F 26.9 °F 28.0 °F 82% 30.01 in 3.0 mi West 6.9 mph - N/A   Haze
1:10 PM 32.0 °F 26.4 °F 28.0 °F 85% 29.99 in 2.5 mi Variable 5.8 mph - N/A   Overcast
1:20 PM 32.0 °F 25.6 °F 27.0 °F 82% 29.99 in 4.0 mi NW 6.9 mph - N/A   Haze
1:53 PM 30.9 °F 25.2 °F 27.0 °F 85% 30.01 in 6.0 mi North 5.8 mph - N/A   Overcast
2:53 PM 30.9 °F 26.2 °F 27.0 °F 85% 30.01 in 4.0 mi North 4.6 mph - N/A   Overcast
3:53 PM 30.9 °F 27.5 °F 26.1 °F 82% 30.00 in 5.0 mi North 3.5 mph - N/A   Haze
4:53 PM 30.0 °F 26.5 °F 26.1 °F 85% 30.03 in 4.0 mi North 3.5 mph - N/A   Overcast
5:45 PM 30.0 °F - 27.0 °F 88% 30.02 in 3.0 mi Calm Calm - N/A   Overcast
5:53 PM 30.0 °F 26.5 °F 27.0 °F 88% 30.05 in 3.0 mi NNW 3.5 mph - N/A   Overcast
6:00 PM 30.0 °F 26.5 °F 27.0 °F 88% 30.03 in 3.0 mi NW 3.5 mph - N/A   Overcast
6:19 PM 30.0 °F - 27.0 °F 88% 30.03 in 4.0 mi Calm Calm - N/A   Overcast
6:53 PM 30.0 °F 23.2 °F 26.1 °F 85% 30.06 in 5.0 mi West 6.9 mph - N/A   Overcast
7:00 PM 30.0 °F 24.1 °F 26.1 °F 85% 30.04 in 5.0 mi West 5.8 mph - N/A   Overcast
7:25 PM 28.9 °F 21.1 °F 24.1 °F 82% 30.03 in 7.0 mi WSW 8.1 mph - N/A   Overcast
7:53 PM 28.9 °F 21.1 °F 23.0 °F 78% 30.07 in 9.0 mi West 8.1 mph - N/A   Overcast
8:53 PM 28.0 °F 18.1 °F 21.9 °F 78% 30.08 in 10.0 mi West 11.5 mph - N/A   Overcast
9:53 PM 26.1 °F 16.2 °F 19.9 °F 78% 30.09 in 10.0 mi West 10.4 mph - N/A   Overcast
10:36 PM 26.1 °F 16.2 °F 19.0 °F 75% 30.07 in 10.0 mi West 10.4 mph 17.3 mph N/A   Overcast
10:53 PM 25.0 °F 17.1 °F 19.0 °F 78% 30.10 in 10.0 mi WSW 6.9 mph - N/A   Overcast
11:53 PM 24.1 °F 13.7 °F 17.1 °F 75% 30.11 in 10.0 mi WSW 10.4 mph - N/A   Overcast